| time (UTC) | temp F | wind direction | speed knots | gust knots | rain 1hr in | rain 24hr in | rain mn in | humidity % | barometer mb |
| 20260505181440 | 51 | 346 | 0.9 | 4.3 | 0.02 | 0.14 | 0.03 | 96 | 1008.3 |
| 20260505175937 | 51 | 345 | 0.9 | 7.8 | 0.01 | 0.18 | 0.02 | 96 | 1008.3 |
| 20260505174433 | 51 | 347 | 0.9 | 7.0 | 0.02 | 0.29 | 0.02 | 95 | 1008.4 |
| 20260505172933 | 51 | 349 | 1.7 | 4.3 | 0.02 | 0.39 | 0.02 | 95 | 1008.3 |
| 20260505171431 | 51 | 348 | 0.9 | 5.2 | 0.01 | 0.39 | 0.02 | 95 | 1008.3 |
| 20260505165931 | 52 | 13 | 0.0 | 3.5 | 0.01 | 0.39 | 0.02 | 95 | 1008.4 |
| 20260505162930 | 52 | 355 | 0.9 | 6.1 | 0.00 | 0.38 | 0.01 | 94 | 1008.4 |
| 20260505161429 | 52 | 11 | 0.9 | 7.8 | 0.00 | 0.38 | 0.01 | 93 | 1008.5 |
| 20260505152917 | 52 | 66 | 1.7 | 6.1 | 0.00 | 0.38 | 0.01 | 93 | 1008.5 |
| 20260505151416 | 52 | 350 | 2.6 | 7.0 | 0.00 | 0.38 | 0.01 | 93 | 1008.5 |
| 20260505124404 | 51 | 32 | 1.7 | 6.1 | 0.00 | 0.38 | 0.01 | 96 | 1009.4 |
| 20260505121405 | 51 | 348 | 0.9 | 6.1 | 0.00 | 0.38 | 0.01 | 96 | 1009.4 |
| 20260505115901 | 51 | 47 | 1.7 | 7.8 | 0.00 | 0.38 | 0.01 | 97 | 1009.4 |
| 20260505114403 | 51 | 355 | 0.9 | 6.1 | 0.00 | 0.38 | 0.01 | 97 | 1009.7 |
| 20260505111401 | 51 | 5 | 0.9 | 5.2 | 0.00 | 0.38 | 0.01 | 97 | 1009.7 |
| 20260505101350 | 51 | 5 | 1.7 | 5.2 | 0.00 | 0.38 | 0.01 | 97 | 1009.9 |
| 20260505095848 | 51 | 355 | 0.9 | 4.3 | 0.00 | 0.38 | 0.01 | 97 | 1009.9 |
| 20260505094351 | 51 | 346 | 1.7 | 7.0 | 0.00 | 0.38 | 0.01 | 97 | 1009.9 |
| 20260505092848 | 51 | 344 | 0.9 | 7.0 | 0.00 | 0.38 | 0.01 | 97 | 1009.8 |
| 20260505091348 | 51 | 67 | 1.7 | 7.0 | 0.00 | 0.38 | 0.01 | 97 | 1009.9 |
| 20260505085840 | 51 | 27 | 1.7 | 5.2 | 0.00 | 0.38 | 0.01 | 97 | 1009.9 |
| 20260505084340 | 51 | 348 | 2.6 | 6.1 | 0.00 | 0.38 | 0.01 | 97 | 1009.9 |
| 20260505082840 | 51 | 348 | 0.9 | 5.2 | 0.00 | 0.38 | 0.01 | 97 | 1010.1 |
| 20260505081333 | 51 | 355 | 1.7 | 6.1 | 0.00 | 0.38 | 0.01 | 97 | 1009.9 |
| 20260505075832 | 51 | 345 | 1.7 | 5.2 | 0.00 | 0.38 | 0.01 | 97 | 1009.9 |
| 20260505074333 | 51 | 350 | 0.9 | 5.2 | 0.00 | 0.38 | 0.01 | 97 | 1009.8 |
| 20260505072833 | 51 | 328 | 0.9 | 5.2 | 0.00 | 0.38 | 0.01 | 97 | 1009.9 |
| 20260505071331 | 51 | 16 | 0.9 | 4.3 | 0.00 | 0.38 | 0.01 | 97 | 1009.9 |
| 20260505065833 | 51 | 355 | 0.9 | 7.8 | 0.00 | 0.38 | 0.01 | 97 | 1009.9 |
| 20260505064330 | 51 | 355 | 0.9 | 5.2 | 0.00 | 0.38 | 0.01 | 97 | 1009.9 |
| 20260505062833 | 51 | 11 | 1.7 | 5.2 | 0.00 | 0.38 | 0.01 | 97 | 1010.0 |
| 20260505061331 | 51 | 350 | 0.9 | 4.3 | 0.00 | 0.38 | 0.01 | 97 | 1010.1 |
| 20260505055831 | 52 | 342 | 0.9 | 6.1 | 0.00 | 0.38 | 0.01 | 97 | 1010.2 |
| 20260505054334 | 52 | 9 | 0.9 | 5.2 | 0.00 | 0.38 | 0.01 | 97 | 1010.0 |
| 20260505052832 | 52 | 338 | 0.9 | 5.2 | 0.00 | 0.38 | 0.01 | 97 | 1010.0 |
| 20260505051332 | 53 | 351 | 0.9 | 4.3 | 0.00 | 0.38 | 0.01 | 97 | 1009.8 |
| 20260505041329 | 53 | 9 | 0.9 | 4.3 | 0.00 | 0.39 | 0.01 | 97 | 1010.0 |
| 20260505035830 | 53 | 355 | 0.0 | 0.0 | 0.00 | 0.39 | 0.01 | 97 | 1010.1 |
| 20260505034325 | 53 | 355 | 0.0 | 3.5 | 0.00 | 0.39 | 0.01 | 96 | 1010.1 |
| 20260505032804 | 54 | 349 | 0.0 | 4.3 | 0.00 | 0.39 | 0.01 | 97 | 1010.2 |
| 20260505031306 | 54 | 13 | 0.0 | 4.3 | 0.00 | 0.39 | 0.01 | 97 | 1010.2 |
| 20260505024306 | 54 | 5 | 0.9 | 7.0 | 0.00 | 0.39 | 0.01 | 96 | 1010.3 |
| 20260505022805 | 55 | 9 | 1.7 | 4.3 | 0.00 | 0.39 | 0.01 | 96 | 1010.3 |
| 20260505021305 | 55 | 346 | 0.9 | 6.1 | 0.00 | 0.39 | 0.01 | 97 | 1010.3 |
| 20260505015805 | 55 | 349 | 0.9 | 6.1 | 0.00 | 0.39 | 0.01 | 96 | 1010.2 |
| 20260505014304 | 55 | 342 | 0.9 | 5.2 | 0.00 | 0.39 | 0.01 | 96 | 1010.4 |
| 20260505012802 | 55 | 10 | 0.0 | 1.7 | 0.00 | 0.39 | 0.01 | 96 | 1010.4 |
| 20260505011315 | 55 | 355 | 0.9 | 6.1 | 0.00 | 0.39 | 0.01 | 96 | 1010.5 |
| 20260505005802 | 56 | 355 | 0.9 | 3.5 | 0.01 | 0.39 | 0.01 | 96 | 1010.5 |
| 20260505004303 | 56 | 348 | 0.0 | 4.3 | 0.01 | 0.39 | 0.01 | 96 | 1010.6 |
| 20260505002804 | 56 | 331 | 0.0 | 0.0 | 0.01 | 0.39 | 0.01 | 96 | 1010.7 |
| 20260505001301 | 56 | 330 | 0.9 | 4.3 | 0.01 | 0.39 | 0.01 | 96 | 1010.7 |
| 20260504235801 | 56 | 292 | 0.0 | 0.0 | 0.00 | 0.38 | 0.00 | 96 | 1010.9 |
| 20260504234302 | 56 | 292 | 0.0 | 0.0 | 0.00 | 0.38 | 0.00 | 96 | 1010.9 |
| 20260504232802 | 56 | 292 | 0.0 | 0.0 | 0.00 | 0.38 | 0.00 | 96 | 1011.0 |
| 20260504231300 | 56 | 292 | 0.0 | 0.0 | 0.00 | 0.38 | 0.00 | 96 | 1011.0 |
| 20260504225754 | 57 | 292 | 0.0 | 0.0 | 0.00 | 0.38 | 0.00 | 96 | 1011.1 |
| 20260504222735 | 57 | 292 | 0.0 | 0.9 | 0.00 | 0.38 | 0.00 | 96 | 1011.5 |
| 20260504221237 | 57 | 292 | 0.0 | 0.0 | 0.00 | 0.38 | 0.00 | 96 | 1011.5 |
| 20260504215730 | 57 | 292 | 0.0 | 1.7 | 0.00 | 0.38 | 0.38 | 96 | 1011.6 |
| 20260504214231 | 57 | 292 | 0.0 | 2.6 | 0.00 | 0.38 | 0.38 | 96 | 1011.9 |
| 20260504211230 | 57 | 249 | 0.0 | 0.0 | 0.00 | 0.38 | 0.38 | 96 | 1011.9 |
| 20260504205730 | 57 | 249 | 0.0 | 0.0 | 0.00 | 0.38 | 0.38 | 96 | 1012.0 |
| 20260504202729 | 57 | 249 | 0.0 | 0.0 | 0.00 | 0.38 | 0.38 | 95 | 1012.0 |
| 20260504201229 | 57 | 249 | 0.0 | 0.0 | 0.00 | 0.38 | 0.38 | 95 | 1012.1 |
| 20260504195723 | 56 | 249 | 0.0 | 0.0 | 0.01 | 0.38 | 0.38 | 95 | 1012.0 |
| 20260504194203 | 56 | 249 | 0.0 | 0.0 | 0.04 | 0.38 | 0.38 | 95 | 1011.9 |
| 20260504192701 | 57 | 249 | 0.0 | 0.0 | 0.07 | 0.38 | 0.38 | 94 | 1011.8 |
| 20260504191155 | 57 | 248 | 0.0 | 0.0 | 0.12 | 0.38 | 0.38 | 94 | 1011.8 |
| 20260504185651 | 57 | 249 | 0.0 | 0.0 | 0.16 | 0.37 | 0.37 | 93 | 1011.7 |
| 20260504184150 | 57 | 249 | 0.0 | 0.0 | 0.25 | 0.35 | 0.34 | 93 | 1011.5 |
| 20260504182647 | 58 | 249 | 0.0 | 0.0 | 0.29 | 0.31 | 0.30 | 93 | 1011.7 |